{"data":{"norad_id":58364,"intl_designator":"2023-177P","name":"STARLINK-30904","alt_names":[],"object_type":"PAYLOAD","status":"ACTIVE","operator":null,"country":"US","launch_date":"2023-11-18","launch_site_code":"AFETR","launch_vehicle":null,"mission":null,"orbit_class":"UNKNOWN","rcs_meters":null,"size_class":null,"mass_kg":null,"dimensions":null,"purposes":["comms"],"wikipedia_slug":null,"has_3d_model":false,"image_url":null,"decayed_at":null,"tle_current":{"epoch":"2026-09-20T08:17:42.552096Z","epoch_age_seconds":157032,"freshness":"FRESH","line1":"1 58364U 23177P   26263.34563139  .00016479  00000+0  94190-3 0  9991","line2":"2 58364  42.9996   1.4403 0012680 321.5705  38.4237 15.12386274157648","mean_motion":15.12386274,"eccentricity":0.001268,"inclination_deg":42.9996,"raan_deg":1.4403,"arg_perigee_deg":321.5705,"mean_anomaly_deg":38.4237,"bstar":0.0009419,"rev_number":15764,"period_min":95.213770764492,"perigee_km":520.16687956408,"apogee_km":537.68318888287,"semimajor_km":6907.0620342235,"source":"CELESTRAK","updated_at":"2026-09-21T09:00:33.843516Z"}}}